Weather History for PAMH - October, 2013

Change the Weather History Date:

Thursday, October 31, 2013

  Actual Average Record
Temperature  
Mean Temperature 27 °F -  
Max Temperature 28 °F 16 °F 35 °F (2003)
Min Temperature 26 °F 8 °F -11 °F (1997)
Degree Days  
Heating Degree Days 38    
Moisture  
Dew Point 24 °F    
Average Humidity 86    
Maximum Humidity 93    
Minimum Humidity 80    
Precipitation  
Precipitation 0.00 in - - ()
Sea Level Pressure  
Sea Level Pressure 29.44 in    
Wind  
Wind Speed 0 mph (North)    
Max Wind Speed 4 mph    
Max Gust Speed -    
Visibility 8 miles    
Events      
Averages and records for this station are not official NWS values.
T = Trace of Precipitation, MM = Missing Value Source: NWS Daily Summary

Daily Weather History Graph

Daily Weather History Graph

Search for Another Location

Airport or City:

Trip Planner

Search our weather history database for the weather conditions in past years. The results will help you decide how hot, cold, wet, or windy it might be!

Date:

Astronomy

Oct. 31, 2013 Rise Set
Actual Time 9:49 AM AKDT 5:55 PM AKDT
Civil Twilight 8:56 AM AKDT 6:47 PM AKDT
Nautical Twilight 8:00 AM AKDT 7:44 PM AKDT
Astronomical Twilight 7:05 AM AKDT 8:38 PM AKDT
Moon 5:54 AM AKDT (10/31) 5:05 PM AKDT (10/31)
Length of Visible Light 9h 50m
Length of Day
8h 05m
Waning Crescent, 9% of the Moon is Illuminated
Oct 31
Waning Crescent
Nov 3
New
Nov 9
First Quarter
Nov 17
Full
Nov 25
Last Quarter

Hourly Weather History & Observations

Time (AKDT) Temp. Windchill Dew Point Humidity Pressure Visibility Wind Dir Wind Speed Gust Speed Precip Events Conditions
12:16 AM 26.6 °F - 24.8 °F 93% 29.25 in 10.0 mi Calm Calm - N/A   Clear
12:36 AM 26.6 °F - 24.8 °F 93% 29.26 in 10.0 mi Calm Calm - N/A   Scattered Clouds
12:56 AM 26.6 °F - 23.0 °F 86% 29.26 in 10.0 mi Calm Calm - N/A   Overcast
1:16 AM 26.6 °F - 24.8 °F 93% 29.26 in 10.0 mi Calm Calm - N/A   Overcast
1:36 AM 28.4 °F - 24.8 °F 86% 29.27 in 10.0 mi Calm Calm - N/A   Overcast
1:56 AM 26.6 °F - 24.8 °F 93% 29.27 in 10.0 mi Calm Calm - N/A   Overcast
2:16 AM 28.4 °F - 24.8 °F 86% 29.28 in 10.0 mi Calm Calm - N/A   Overcast
2:36 AM 28.4 °F - 24.8 °F 86% 29.28 in 10.0 mi Calm Calm - N/A   Overcast
2:56 AM 28.4 °F - 24.8 °F 86% 29.29 in 10.0 mi Calm Calm - N/A   Overcast
3:16 AM 28.4 °F - 23.0 °F 80% 29.29 in 10.0 mi Calm Calm - N/A   Scattered Clouds
3:36 AM 26.6 °F - 23.0 °F 86% 29.29 in 10.0 mi Calm Calm - N/A   Clear
3:56 AM 26.6 °F - 23.0 °F 86% 29.30 in 10.0 mi Calm Calm - N/A   Clear
4:16 AM 26.6 °F - 23.0 °F 86% 29.30 in 10.0 mi Calm Calm - N/A   Clear
4:36 AM 26.6 °F - 23.0 °F 86% 29.31 in 10.0 mi Calm Calm - N/A   Scattered Clouds
4:56 AM 26.6 °F - 23.0 °F 86% 29.31 in 10.0 mi Calm Calm - N/A   Mostly Cloudy
5:16 AM 26.6 °F - 23.0 °F 86% 29.32 in 10.0 mi Calm Calm - N/A   Overcast
5:36 AM 26.6 °F - 23.0 °F 86% 29.32 in 10.0 mi Calm Calm - N/A   Overcast
5:56 AM 26.6 °F - 23.0 °F 86% 29.33 in 10.0 mi Calm Calm - N/A   Mostly Cloudy
6:16 AM 26.6 °F - 23.0 °F 86% 29.33 in 10.0 mi Calm Calm - N/A   Overcast
6:36 AM 26.6 °F - 23.0 °F 86% 29.34 in 10.0 mi Calm Calm - N/A   Overcast
6:56 AM 26.6 °F - 23.0 °F 86% 29.35 in 10.0 mi Calm Calm - N/A   Overcast
7:16 AM 26.6 °F - 23.0 °F 86% 29.35 in 10.0 mi Calm Calm - N/A   Overcast
7:36 AM 26.6 °F - 23.0 °F 86% 29.36 in 10.0 mi Calm Calm - N/A   Overcast
7:56 AM 26.6 °F - 23.0 °F 86% 29.37 in 10.0 mi Calm Calm - N/A   Overcast
8:16 AM 26.6 °F - 23.0 °F 86% 29.37 in 10.0 mi Calm Calm - N/A   Overcast
8:36 AM 26.6 °F - 21.2 °F 80% 29.37 in 10.0 mi Calm Calm - N/A   Overcast
8:56 AM 26.6 °F - 21.2 °F 80% 29.38 in 10.0 mi Calm Calm - N/A   Scattered Clouds
9:16 AM 26.6 °F - 21.2 °F 80% 29.39 in 10.0 mi Calm Calm - N/A   Clear
9:36 AM 26.6 °F - 21.2 °F 80% 29.39 in 10.0 mi Calm Calm - N/A   Clear
9:56 AM 26.6 °F - 21.2 °F 80% 29.40 in 10.0 mi Calm Calm - N/A   Mostly Cloudy
10:16 AM 26.6 °F - 21.2 °F 80% 29.40 in 10.0 mi Calm Calm - N/A   Overcast
10:36 AM 26.6 °F - 21.2 °F 80% 29.41 in 10.0 mi Calm Calm - N/A   Overcast
10:56 AM 26.6 °F - 23.0 °F 86% 29.42 in 10.0 mi Calm Calm - N/A   Overcast
11:16 AM 28.4 °F - 23.0 °F 80% 29.42 in 8.0 mi Calm Calm - N/A   Overcast
11:36 AM 28.4 °F - 24.8 °F 86% 29.42 in 6.0 mi Calm Calm - N/A   Overcast
11:56 AM 28.4 °F - 24.8 °F 86% 29.43 in 9.0 mi Calm Calm - N/A   Overcast
12:16 PM 28.4 °F - 24.8 °F 86% 29.44 in 9.0 mi Calm Calm - N/A   Overcast
12:36 PM 28.4 °F - 24.8 °F 86% 29.45 in 7.0 mi Calm Calm - N/A   Overcast
12:56 PM 28.4 °F - 24.8 °F 86% 29.46 in 7.0 mi Calm Calm - N/A   Overcast
1:16 PM 28.4 °F - 24.8 °F 86% 29.46 in 4.0 mi Calm Calm - N/A   Overcast
1:36 PM 28.4 °F - 24.8 °F 86% 29.47 in 5.0 mi Calm Calm - N/A   Overcast
1:56 PM 28.4 °F - 24.8 °F 86% 29.47 in 7.0 mi Calm Calm - N/A   Overcast
2:16 PM 28.4 °F - 24.8 °F 86% 29.48 in 5.0 mi Calm Calm - N/A   Overcast
2:36 PM 28.4 °F - 24.8 °F 86% 29.49 in 8.0 mi Calm Calm - N/A   Overcast
2:56 PM 28.4 °F - 24.8 °F 86% 29.49 in 7.0 mi Calm Calm - N/A   Overcast
3:16 PM 28.4 °F 24.6 °F 24.8 °F 86% 29.50 in 3.0 mi North 3.5 mph - N/A   Overcast
3:36 PM 28.4 °F - 24.8 °F 86% 29.50 in 3.0 mi Calm Calm - N/A   Overcast
3:56 PM 28.4 °F - 24.8 °F 86% 29.51 in 3.0 mi Calm Calm - N/A   Overcast
4:16 PM 28.4 °F - 24.8 °F 86% 29.51 in 4.0 mi Calm Calm - N/A   Overcast
4:36 PM 28.4 °F - 24.8 °F 86% 29.52 in 8.0 mi Calm Calm - N/A   Overcast
4:56 PM 28.4 °F - 24.8 °F 86% 29.52 in 6.0 mi Calm Calm - N/A   Overcast
5:16 PM 28.4 °F - 24.8 °F 86% 29.53 in 5.0 mi Calm Calm - N/A   Overcast
5:36 PM 28.4 °F - 24.8 °F 86% 29.54 in 3.0 mi Calm Calm - N/A   Overcast
5:56 PM 28.4 °F - 24.8 °F 86% 29.55 in 5.0 mi Calm Calm - N/A   Overcast
6:16 PM 28.4 °F - 24.8 °F 86% 29.55 in 10.0 mi Calm Calm - N/A   Overcast
6:36 PM 28.4 °F - 24.8 °F 86% 29.56 in 9.0 mi Calm Calm - N/A   Overcast
6:56 PM 28.4 °F - 24.8 °F 86% 29.56 in 10.0 mi Calm Calm - N/A   Overcast
7:16 PM 28.4 °F - 24.8 °F 86% 29.57 in 9.0 mi Calm Calm - N/A   Overcast
7:36 PM 28.4 °F - 24.8 °F 86% 29.57 in 9.0 mi Calm Calm - N/A   Overcast
7:56 PM 28.4 °F - 24.8 °F 86% 29.58 in 10.0 mi Calm Calm - N/A   Overcast
8:16 PM 28.4 °F - 24.8 °F 86% 29.59 in 6.0 mi Calm Calm - N/A   Overcast
8:36 PM 28.4 °F - 24.8 °F 86% 29.60 in 10.0 mi Calm Calm - N/A   Overcast
8:56 PM 28.4 °F - 24.8 °F 86% 29.60 in 10.0 mi Calm Calm - N/A   Overcast
9:16 PM 28.4 °F - 24.8 °F 86% 29.61 in 10.0 mi Calm Calm - N/A   Overcast
9:36 PM 28.4 °F - 24.8 °F 86% 29.62 in 10.0 mi Calm Calm - N/A   Overcast
9:56 PM 28.4 °F - 24.8 °F 86% 29.63 in 10.0 mi Calm Calm - N/A   Overcast
10:16 PM 28.4 °F - 24.8 °F 86% 29.64 in 8.0 mi Calm Calm - N/A   Overcast
10:36 PM 28.4 °F - 24.8 °F 86% 29.65 in 8.0 mi Calm Calm - N/A   Overcast
10:56 PM 28.4 °F - 24.8 °F 86% 29.66 in 8.0 mi Calm Calm - N/A   Overcast
11:16 PM 28.4 °F - 24.8 °F 86% 29.67 in 8.0 mi Calm Calm - N/A   Overcast
11:36 PM 28.4 °F - 24.8 °F 86% 29.68 in 10.0 mi Calm Calm - N/A   Overcast
11:56 PM 28.4 °F - 24.8 °F 86% 29.69 in 4.0 mi Calm Calm - N/A   Overcast